When you browse on this site, cookies collect data to enhance your experience and personalize the content and advertising you see.
Visit our Privacy Policy to learn more. By continuing to use the site, you agree to this use of cookies and data.
  • In Deutschland
  • Länderverzeichnis
  • Für 7 Tage
  • Wassertemperatur
  • Satellitenkarten
  • Wetterkarte
  • Widgets
  • user-avatar
    Anmelden

    Stündliche Wetter Waldkirch

    Heute, 19 Dezember, Mittwoch

    Zeit Temperatur Niederschläge Wind Luftdruck Luftfeuchtigkeit
    00:00 +1°C° 0 mm 2 m/S 724 mmHg 68%
    01:00 +1°C° 0 mm 2 m/S 724 mmHg 67%
    02:00 +1°C° 0 mm 2 m/S 724 mmHg 67%
    03:00 +2°C° 0 mm 2 m/S 723 mmHg 66%
    04:00 +2°C° 0 mm 2 m/S 723 mmHg 65%
    05:00 +2°C° 0 mm 2 m/S 723 mmHg 67%
    06:00 +3°C° 0 mm 2 m/S 723 mmHg 69%
    07:00 +3°C° 0 mm 2 m/S 723 mmHg 71%
    08:00 +3°C° 0.2 mm 2 m/S 723 mmHg 74%
    09:00 +4°C° 0.2 mm 2 m/S 724 mmHg 77%
    10:00 +4°C° 0.2 mm 2 m/S 724 mmHg 80%
    11:00 +4°C° 0.4 mm 2 m/S 723 mmHg 82%
    12:00 +5°C° 0.4 mm 2 m/S 723 mmHg 84%
    13:00 +5°C° 0.4 mm 2 m/S 723 mmHg 86%
    14:00 +5°C° 0.4 mm 2 m/S 723 mmHg 88%
    15:00 +5°C° 0.4 mm 1 m/S 722 mmHg 89%
    16:00 +5°C° 0.4 mm 1 m/S 722 mmHg 91%
    17:00 +5°C° 0.6 mm 1 m/S 722 mmHg 92%
    18:00 +5°C° 0.6 mm 1 m/S 723 mmHg 93%
    19:00 +3°C° 0.6 mm 2 m/S 723 mmHg 94%
    20:00 +3°C° 0.2 mm 2 m/S 723 mmHg 94%
    21:00 +3°C° 0.2 mm 2 m/S 723 mmHg 94%
    22:00 +3°C° 0.2 mm 2 m/S 723 mmHg 94%
    23:00 +3°C° 0.1 mm 2 m/S 723 mmHg 94%

    Morgen, 20 Dezember, Donnerstag

    Zeit Temperatur Niederschläge Wind Luftdruck Luftfeuchtigkeit
    00:00 +3°C° 0.1 mm 2 m/S 723 mmHg 93%
    01:00 +3°C° 0.1 mm 2 m/S 724 mmHg 93%
    02:00 +3°C° 0.1 mm 2 m/S 724 mmHg 93%
    03:00 +3°C° 0.1 mm 2 m/S 724 mmHg 93%
    04:00 +3°C° 0.1 mm 2 m/S 724 mmHg 93%
    05:00 +3°C° 0.1 mm 2 m/S 724 mmHg 93%
    06:00 +2°C° 0.1 mm 3 m/S 725 mmHg 93%
    07:00 +2°C° 0.1 mm 3 m/S 725 mmHg 93%
    08:00 +2°C° 0.1 mm 3 m/S 725 mmHg 91%
    09:00 +3°C° 0.1 mm 3 m/S 725 mmHg 89%
    10:00 +3°C° 0.1 mm 4 m/S 725 mmHg 87%
    11:00 +4°C° 0.2 mm 4 m/S 726 mmHg 85%
    12:00 +4°C° 0.2 mm 4 m/S 726 mmHg 82%
    13:00 +5°C° 0.2 mm 5 m/S 726 mmHg 79%
    14:00 +5°C° 0.1 mm 4 m/S 726 mmHg 81%
    15:00 +4°C° 0.1 mm 4 m/S 726 mmHg 83%
    16:00 +4°C° 0.1 mm 3 m/S 726 mmHg 86%
    17:00 +4°C° 0.1 mm 3 m/S 727 mmHg 87%
    18:00 +3°C° 0.1 mm 3 m/S 727 mmHg 88%
    19:00 +3°C° 0.1 mm 3 m/S 727 mmHg 90%
    20:00 +3°C° 0.1 mm 3 m/S 727 mmHg 89%
    21:00 +3°C° 0.1 mm 4 m/S 727 mmHg 88%
    22:00 +3°C° 0.1 mm 4 m/S 727 mmHg 87%
    23:00 +4°C° 0 mm 4 m/S 727 mmHg 85%

    übermorgen, 21 Dezember, Freitag

    Zeit Temperatur Niederschläge Wind Luftdruck Luftfeuchtigkeit
    00:00 +4°C° 0 mm 4 m/S 727 mmHg 84%
    01:00 +3°C° 0 mm 5 m/S 727 mmHg 82%
    02:00 +3°C° 0 mm 5 m/S 727 mmHg 83%
    03:00 +3°C° 0 mm 5 m/S 726 mmHg 83%
    04:00 +3°C° 0 mm 5 m/S 726 mmHg 83%
    05:00 +3°C° 0.3 mm 5 m/S 725 mmHg 82%
    06:00 +3°C° 0.3 mm 5 m/S 725 mmHg 81%
    07:00 +4°C° 0.3 mm 6 m/S 724 mmHg 80%
    08:00 +4°C° 0.8 mm 6 m/S 724 mmHg 81%
    09:00 +4°C° 0.8 mm 7 m/S 724 mmHg 81%
    10:00 +5°C° 0.8 mm 7 m/S 724 mmHg 82%
    11:00 +5°C° 0.6 mm 8 m/S 723 mmHg 82%
    12:00 +6°C° 0.6 mm 8 m/S 723 mmHg 81%
    13:00 +6°C° 0.6 mm 8 m/S 723 mmHg 81%
    14:00 +6°C° 0.7 mm 8 m/S 723 mmHg 82%
    15:00 +6°C° 0.7 mm 8 m/S 723 mmHg 83%
    16:00 +6°C° 0.7 mm 7 m/S 723 mmHg 84%
    17:00 +6°C° 0.6 mm 7 m/S 723 mmHg 84%
    18:00 +8°C° 0.6 mm 7 m/S 724 mmHg 84%
    19:00 +8°C° 0.6 mm 7 m/S 724 mmHg 84%
    20:00 +8°C° 0.3 mm 7 m/S 724 mmHg 85%
    21:00 +8°C° 0.3 mm 6 m/S 724 mmHg 85%
    22:00 +8°C° 0.3 mm 5 m/S 725 mmHg 86%
    23:00 +8°C° 0.9 mm 5 m/S 724 mmHg 87%

    22 Dezember, Samstag

    Zeit Temperatur Niederschläge Wind Luftdruck Luftfeuchtigkeit
    00:00 +8°C° 0.9 mm 5 m/S 724 mmHg 88%
    01:00 +7°C° 0.9 mm 5 m/S 724 mmHg 90%
    02:00 +8°C° 0.5 mm 5 m/S 724 mmHg 89%
    03:00 +8°C° 0.5 mm 5 m/S 724 mmHg 89%
    04:00 +9°C° 0.5 mm 5 m/S 724 mmHg 88%
    05:00 +9°C° 0.5 mm 6 m/S 724 mmHg 87%
    06:00 +9°C° 0.5 mm 6 m/S 724 mmHg 86%
    07:00 +10°C° 0.5 mm 7 m/S 724 mmHg 85%
    08:00 +10°C° 0.1 mm 7 m/S 724 mmHg 84%
    09:00 +10°C° 0.1 mm 7 m/S 724 mmHg 83%
    10:00 +9°C° 0.1 mm 7 m/S 725 mmHg 82%
    11:00 +10°C° 0.3 mm 7 m/S 725 mmHg 81%
    12:00 +10°C° 0.3 mm 7 m/S 725 mmHg 80%
    13:00 +10°C° 0.3 mm 7 m/S 725 mmHg 79%
    14:00 +10°C° 0.2 mm 7 m/S 725 mmHg 80%
    15:00 +9°C° 0.2 mm 6 m/S 725 mmHg 82%
    16:00 +9°C° 0.2 mm 6 m/S 725 mmHg 83%
    17:00 +9°C° 0.3 mm 5 m/S 726 mmHg 84%
    18:00 +8°C° 0.3 mm 5 m/S 726 mmHg 86%
    19:00 +8°C° 0.3 mm 4 m/S 727 mmHg 87%
    20:00 +8°C° 0.1 mm 4 m/S 727 mmHg 87%
    21:00 +7°C° 0.1 mm 4 m/S 728 mmHg 87%
    22:00 +8°C° 0.1 mm 3 m/S 728 mmHg 88%
    23:00 +8°C° 0 mm 3 m/S 728 mmHg 88%

    23 Dezember, Sonntag

    Zeit Temperatur Niederschläge Wind Luftdruck Luftfeuchtigkeit
    00:00 +7°C° 0 mm 3 m/S 728 mmHg 89%
    01:00 +7°C° 0 mm 3 m/S 728 mmHg 90%
    02:00 +7°C° 0 mm 3 m/S 728 mmHg 90%
    03:00 +7°C° 0 mm 3 m/S 729 mmHg 91%
    04:00 +6°C° 0 mm 2 m/S 729 mmHg 91%
    05:00 +7°C° 0.1 mm 2 m/S 728 mmHg 92%
    06:00 +7°C° 0.1 mm 2 m/S 728 mmHg 92%
    07:00 +7°C° 0.1 mm 2 m/S 728 mmHg 92%
    08:00 +8°C° 0.7 mm 1 m/S 728 mmHg 92%
    09:00 +8°C° 0.7 mm 1 m/S 728 mmHg 93%
    10:00 +9°C° 0.7 mm 1 m/S 728 mmHg 93%
    11:00 +9°C° 0.9 mm 1 m/S 728 mmHg 93%
    12:00 +9°C° 0.9 mm 1 m/S 728 mmHg 93%
    13:00 +10°C° 0.9 mm 1 m/S 728 mmHg 93%
    14:00 +9°C° 0.6 mm 2 m/S 728 mmHg 93%
    15:00 +9°C° 0.6 mm 2 m/S 728 mmHg 93%
    16:00 +9°C° 0.6 mm 3 m/S 728 mmHg 92%
    17:00 +10°C° 0.7 mm 3 m/S 728 mmHg 92%
    18:00 +10°C° 0.7 mm 3 m/S 728 mmHg 93%
    19:00 +10°C° 0.7 mm 3 m/S 728 mmHg 93%
    20:00 +10°C° 0.7 mm 3 m/S 728 mmHg 93%
    21:00 +10°C° 0.7 mm 3 m/S 728 mmHg 93%
    22:00 +10°C° 0.7 mm 3 m/S 728 mmHg 92%
    23:00 +10°C° 0.3 mm 3 m/S 728 mmHg 92%

    24 Dezember, Montag

    Zeit Temperatur Niederschläge Wind Luftdruck Luftfeuchtigkeit
    00:00 +10°C° 0.3 mm 4 m/S 728 mmHg 91%
    01:00 +10°C° 0.3 mm 4 m/S 728 mmHg 90%
    02:00 +10°C° 0.3 mm 4 m/S 728 mmHg 90%
    03:00 +10°C° 0.3 mm 4 m/S 728 mmHg 90%
    04:00 +10°C° 0.3 mm 3 m/S 728 mmHg 90%
    05:00 +10°C° 0.2 mm 3 m/S 727 mmHg 90%
    06:00 +9°C° 0.2 mm 3 m/S 727 mmHg 90%
    07:00 +9°C° 0.2 mm 3 m/S 727 mmHg 91%
    08:00 +9°C° 0.2 mm 3 m/S 727 mmHg 90%
    09:00 +9°C° 0.2 mm 2 m/S 728 mmHg 90%
    10:00 +9°C° 0.2 mm 2 m/S 728 mmHg 90%
    11:00 +9°C° 0.8 mm 2 m/S 728 mmHg 90%
    12:00 +10°C° 0.8 mm 2 m/S 727 mmHg 90%
    13:00 +11°C° 0.8 mm 1 m/S 727 mmHg 91%
    14:00 +11°C° 0.4 mm 1 m/S 727 mmHg 91%
    15:00 +10°C° 0.4 mm 1 m/S 727 mmHg 92%
    16:00 +10°C° 0.4 mm 1 m/S 727 mmHg 93%
    17:00 +10°C° 0.2 mm 1 m/S 727 mmHg 93%
    18:00 +9°C° 0.2 mm 1 m/S 727 mmHg 94%
    19:00 +8°C° 0.2 mm 0 m/S 727 mmHg 95%
    20:00 +9°C° 0.2 mm 1 m/S 727 mmHg 95%
    21:00 +9°C° 0.2 mm 1 m/S 727 mmHg 95%
    22:00 +8°C° 0.2 mm 1 m/S 727 mmHg 95%
    23:00 +8°C° 0 mm 1 m/S 726 mmHg 95%
    Mehr zeigen